EW7630 Weather Reports


time (UTC)temp
C
wind
direction
speed
KPH
gust
KPH
rain 1hr
cm
rain 24hr
cm
rain mn
cm
humidity
%
barometer
mb
20260906131050 22 254 1.6 6.4 0.00 0.00 0.00 92 1014.9
20260906130053 22 20 3.2 8.0 0.00 0.00 0.00 92 1014.6
20260906125030 22 0.0 0.0 0.00 0.00 0.00 93 1014.6
20260906124026 21 0.0 0.0 0.00 0.00 0.00 93 1014.5
20260906123027 21 149 3.2 4.8 0.00 0.00 0.00 93 1014.5
20260906122019 21 258 3.2 6.4 0.00 0.00 0.00 93 1014.4
20260906121021 21 132 1.6 4.8 0.00 0.00 0.00 93 1014.4
20260906120024 21 203 1.6 4.8 0.00 0.00 0.00 93 1014.3
20260906115045 21 0.0 0.0 0.00 0.00 0.00 93 1014.3
20260906114048 21 27 1.6 4.8 0.00 0.00 0.00 93 1014.2
20260906113029 21 73 3.2 6.4 0.00 0.00 0.00 93 1013.9
20260906112052 21 26 1.6 4.8 0.00 0.00 0.00 93 1013.7
20260906111034 21 0 1.6 4.8 0.00 0.00 0.00 92 1013.5
20260906110030 21 0.0 0.0 0.00 0.00 0.00 92 1013.4
20260906105034 21 254 1.6 4.8 0.00 0.00 0.00 92 1013.4
20260906104032 21 335 1.6 4.8 0.00 0.00 0.00 91 1013.4
20260906103035 21 201 1.6 4.8 0.00 0.00 0.00 91 1013.3
20260906102017 22 0.0 0.0 0.00 0.00 0.00 91 1013.3
20260906101026 22 276 3.2 4.8 0.00 0.00 0.00 90 1013.2
20260906100023 22 328 1.6 4.8 0.00 0.00 0.00 90 1013.1
20260906095018 22 26 1.6 4.8 0.00 0.00 0.00 90 1013.0
20260906094026 22 84 1.6 4.8 0.00 0.00 0.00 89 1012.9
20260906093048 22 25 1.6 4.8 0.00 0.00 0.00 89 1012.8
20260906092030 22 298 1.6 4.8 0.00 0.00 0.00 89 1013.0
20260906091032 23 225 0.0 3.2 0.00 0.00 0.00 89 1012.9
20260906090035 23 8 3.2 9.7 0.00 0.00 0.00 89 1013.0
20260906085018 23 222 1.6 6.4 0.00 0.00 0.00 89 1013.0
20260906084021 23 337 3.2 6.4 0.00 0.00 0.00 89 1012.9
20260906083022 23 4 1.6 4.8 0.00 0.00 0.00 89 1012.8
20260906082026 23 5 3.2 4.8 0.00 0.00 0.00 89 1012.7
20260906081024 24 0.0 0.0 0.00 0.00 0.00 89 1012.6
20260906080025 24 12 1.6 4.8 0.00 0.00 0.00 89 1012.7
20260906075028 24 348 3.2 4.8 0.00 0.00 0.00 88 1012.7
20260906074025 25 93 1.6 3.2 0.00 0.00 0.00 88 1012.6
20260906073021 25 101 1.6 4.8 0.00 0.00 0.00 87 1012.7
20260906072018 25 202 1.6 6.4 0.00 0.00 0.00 87 1012.8
20260906071019 25 281 3.2 6.4 0.00 0.00 0.00 87 1012.7
20260906070022 25 246 1.6 3.2 0.00 0.00 0.00 87 1012.8
20260906065023 25 113 0.0 3.2 0.00 0.00 0.00 86 1012.8
20260906064020 25 47 1.6 4.8 0.00 0.00 0.00 85 1012.8
20260906063022 25 163 3.2 8.0 0.00 0.00 0.00 86 1012.8
20260906062023 26 174 1.6 4.8 0.00 0.00 0.00 86 1012.7
20260906061026 26 204 1.6 4.8 0.00 0.00 0.00 86 1012.8
20260906060023 26 166 1.6 6.4 0.00 0.00 0.00 86 1012.6
20260906055055 26 157 1.6 4.8 0.00 0.00 0.00 86 1012.6
20260906054100 26 172 1.6 6.4 0.00 0.00 0.00 85 1012.7
20260906053018 26 124 1.6 4.8 0.00 0.00 0.00 85 1012.6
20260906052026 27 205 3.2 4.8 0.00 0.00 0.00 84 1012.5
20260906051043 27 215 3.2 4.8 0.00 0.00 0.00 84 1012.4
20260906050019 27 68 0.0 3.2 0.00 0.00 0.00 84 1012.3
20260906045027 27 312 1.6 3.2 0.00 0.00 0.00 84 1012.2
20260906044029 27 294 1.6 3.2 0.00 0.00 0.00 84 1012.1
20260906043031 27 46 0.0 3.2 0.00 0.00 0.00 84 1012.1
20260906042053 27 0 0.0 3.2 0.00 0.00 0.00 83 1011.9
20260906041037 27 0 0.0 3.2 0.00 0.00 0.00 83 1012.0
20260906040019 27 0 0.0 1.6 0.00 0.00 0.00 83 1011.9
20260906035022 27 0.0 0.0 0.00 0.00 0.00 82 1011.8
20260906034025 27 0.0 0.0 0.00 0.00 0.00 82 1011.7
20260906033027 27 0 0.0 3.2 0.00 0.00 0.00 81 1011.7
20260906032029 27 0.0 1.6 0.00 0.00 0.00 81 1011.6
20260906031029 28 0.0 0.0 0.00 0.00 0.00 80 1011.5
20260906030030 28 0 0.0 3.2 0.00 0.00 0.00 79 1011.4
20260906025027 28 0.0 0.0 0.00 0.00 0.00 79 1011.3
20260906024024 28 0.0 0.0 0.00 0.00 0.00 79 1011.2
20260906023020 28 0.0 0.0 0.00 0.00 0.00 78 1011.0
20260906022034 28 0.0 0.0 0.00 0.00 0.00 78 1011.0
20260906021031 28 0.0 0.0 0.00 0.00 0.00 78 1010.9
20260906020033 28 0.0 0.0 0.00 0.00 0.00 77 1010.6
20260906015032 28 0.0 0.0 0.00 0.00 0.00 77 1010.6
20260906014027 28 0 0.0 1.6 0.00 0.00 0.00 76 1010.5
20260906013028 28 0.0 0.0 0.00 0.00 0.00 74 1010.4
20260906012050 28 0 0.0 1.6 0.00 0.00 0.00 73 1010.4
20260906011032 29 0.0 0.0 0.00 0.00 0.00 71 1010.2
20260906010034 29 0.0 0.0 0.00 0.00 0.00 70 1010.1
20260906005035 30 0.0 0.0 0.00 0.00 0.00 68 1010.0
20260906004018 30 0.0 0.0 0.00 0.00 0.00 67 1010.0
20260906003018 30 23 0.0 3.2 0.00 0.00 0.00 64 1010.0
20260906002026 31 348 1.6 3.2 0.00 0.00 0.00 63 1010.1
20260906001022 31 0.0 0.0 0.00 0.00 0.00 62 1010.1
20260906000020 31 68 0.0 3.2 0.00 0.00 0.00 61 1010.1
20260905235028 32 258 1.6 3.2 0.00 0.00 0.00 59 1010.1
20260905234052 32 279 0.0 3.2 0.00 0.00 0.00 57 1010.1
20260905233032 32 102 1.6 4.8 0.00 0.00 0.00 57 1010.0
20260905232029 33 266 3.2 3.2 0.00 0.00 0.00 56 1010.0
20260905231053 33 0.0 0.0 0.00 0.00 0.00 57 1010.0
20260905230029 32 161 0.0 3.2 0.00 0.00 0.00 59 1010.2
20260905225031 32 137 1.6 3.2 0.00 0.00 0.00 60 1010.3
20260905224033 34 152 4.8 9.7 0.00 0.00 0.00 57 1010.4
20260905223034 34 131 1.6 4.8 0.00 0.00 0.00 56 1010.3
20260905222054 35 155 3.2 4.8 0.00 0.00 0.00 55 1009.9
20260905221018 35 274 4.8 8.0 0.00 0.00 0.00 53 1010.2
20260905220038 35 276 3.2 6.4 0.00 0.00 0.00 55 1009.9
20260905215026 35 243 3.2 6.4 0.00 0.00 0.00 52 1009.8
20260905214022 36 260 4.8 8.0 0.00 0.00 0.00 45 1009.8
20260905213020 36 291 3.2 4.8 0.00 0.00 0.00 49 1009.8
20260905212027 34 11 6.4 8.0 0.00 0.00 0.00 56 1010.0
20260905211050 37 335 8.0 12.9 0.00 0.00 0.00 48 1010.0
20260905210031 37 0 4.8 9.7 0.00 0.00 0.00 48 1010.1
20260905205034 37 349 3.2 6.4 0.00 0.00 0.00 49 1010.1
20260905204018 37 337 4.8 8.0 0.00 0.00 0.00 50 1010.1
20260905203020 36 347 3.2 6.4 0.00 0.00 0.00 49 1010.3
20260905202021 36 9 3.2 6.4 0.00 0.00 0.00 50 1010.3
20260905201023 37 244 3.2 6.4 0.00 0.00 0.00 46 1010.5
20260905200026 38 306 4.8 8.0 0.00 0.00 0.00 47 1010.5
20260905195027 -17 248 3.2 3.2 0.00 0.00 0.00 1010.5
20260905194028 37 348 6.4 8.0 0.00 0.00 0.00 48 1010.6
20260905193030 37 273 4.8 9.7 0.00 0.00 0.00 47 1010.8
20260905192027 37 325 4.8 8.0 0.00 0.00 0.00 48 1010.9
20260905191022 37 264 6.4 14.5 0.00 0.00 0.00 47 1011.0
20260905190019 37 315 4.8 8.0 0.00 0.00 0.00 49 1011.2
20260905185021 37 261 3.2 11.3 0.00 0.00 0.00 48 1011.3
20260905184037 36 315 4.8 8.0 0.00 0.00 0.00 50 1011.4
20260905183020 36 341 3.2 6.4 0.00 0.00 0.00 50 1011.4
20260905182034 36 278 3.2 4.8 0.00 0.00 0.00 52 1011.6
20260905181018 36 276 4.8 11.3 0.00 0.00 0.00 51 1011.7
20260905180020 37 0 3.2 8.0 0.00 0.00 0.00 53 1011.8
20260905175022 37 256 4.8 8.0 0.00 0.00 0.00 52 1011.8
20260905174024 37 63 3.2 4.8 0.00 0.00 0.00 53 1011.8
20260905173020 37 339 3.2 8.0 0.00 0.00 0.00 52 1011.9
20260905172113 36 179 3.2 4.8 0.00 0.00 0.00 55 1011.9
20260905171034 36 356 3.2 8.0 0.00 0.00 0.00 54 1012.2
20260905170051 36 239 3.2 6.4 0.00 0.00 0.00 56 1012.2
20260905165027 36 192 1.6 4.8 0.00 0.00 0.00 59 1012.4
20260905164025 35 244 3.2 8.0 0.00 0.00 0.00 61 1012.6
20260905163020 35 302 4.8 6.4 0.00 0.00 0.00 61 1012.7
20260905162033 34 292 3.2 9.7 0.00 0.00 0.00 61 1012.6
20260905161018 34 266 6.4 8.0 0.00 0.00 0.00 61 1012.7
20260905160041 34 271 3.2 8.0 0.00 0.00 0.00 61 1012.7
20260905155043 33 224 3.2 4.8 0.00 0.00 0.00 63 1012.7
20260905154024 33 183 3.2 6.4 0.00 0.00 0.00 63 1012.7
20260905153027 33 268 3.2 8.0 0.00 0.00 0.00 65 1012.7
20260905152029 32 276 4.8 8.0 0.00 0.00 0.00 65 1012.7
20260905151031 32 280 4.8 6.4 0.00 0.00 0.00 65 1012.7
20260905150033 32 8 4.8 8.0 0.00 0.00 0.00 63 1012.6
20260905145033 32 262 3.2 8.0 0.00 0.00 0.00 64 1012.6
20260905144058 32 281 3.2 8.0 0.00 0.00 0.00 66 1012.5
20260905143017 31 346 3.2 8.0 0.00 0.00 0.00 68 1012.5
20260905142026 31 305 3.2 9.7 0.00 0.00 0.00 69 1012.6
20260905141022 30 287 4.8 6.4 0.00 0.00 0.00 71 1012.6
20260905140019 30 0.0 0.0 0.00 0.00 0.00 74 1012.5
20260905135028 29 0.0 0.0 0.00 0.00 0.00 77 1012.5
20260905134029 28 0.0 0.0 0.00 0.00 0.00 80 1012.5
20260905133031 27 0.0 0.0 0.00 0.00 0.00 82 1012.4
20260905132033 26 291 3.2 6.4 0.00 0.00 0.00 87 1012.4